TimeEDT,TemperatureF,Dew PointF,Humidity,Sea Level PressureIn,VisibilityMPH,Wind Direction,Wind SpeedMPH,Gust SpeedMPH,PrecipitationIn,Events,Conditions,WindDirDegrees,DateUTC
12:51 AM,19.9,17.1,89,30.09,10.0,Calm,Calm,-,N/A,,Clear,0,2013-03-31 04:51:00
1:51 AM,18.0,16.0,92,30.08,10.0,Calm,Calm,-,N/A,,Clear,0,2013-03-31 05:51:00
2:51 AM,18.0,16.0,92,30.07,10.0,Calm,Calm,-,N/A,,Clear,0,2013-03-31 06:51:00
3:51 AM,17.1,15.1,92,30.05,10.0,Calm,Calm,-,N/A,,Clear,0,2013-03-31 07:51:00
4:51 AM,16.0,14.0,92,30.03,10.0,Calm,Calm,-,N/A,,Clear,0,2013-03-31 08:51:00
5:51 AM,16.0,12.9,88,30.02,10.0,Calm,Calm,-,N/A,,Clear,0,2013-03-31 09:51:00
6:51 AM,16.0,14.0,92,30.01,10.0,Calm,Calm,-,N/A,,Clear,0,2013-03-31 10:51:00
7:51 AM,19.9,17.1,89,30.00,10.0,Calm,Calm,-,N/A,,Clear,0,2013-03-31 11:51:00
8:26 AM,26.6,23.0,86,29.93,1.8,Calm,Calm,-,N/A,,Clear,0,2013-03-31 12:26:00
8:37 AM,28.4,24.8,86,29.92,4.0,Calm,Calm,-,N/A,,Clear,0,2013-03-31 12:37:00
8:48 AM,28.4,24.8,86,29.92,2.0,Calm,Calm,-,N/A,,Clear,0,2013-03-31 12:48:00
8:51 AM,28.9,25.0,85,29.98,4.0,Calm,Calm,-,N/A,,Clear,0,2013-03-31 12:51:00
9:51 AM,37.0,24.1,59,29.96,5.0,South,3.5,-,N/A,,Haze,190,2013-03-31 13:51:00
10:51 AM,44.1,19.9,38,29.92,10.0,South,17.3,26.5,N/A,,Clear,180,2013-03-31 14:51:00
11:51 AM,44.1,21.0,40,29.90,10.0,SSW,15.0,23.0,N/A,,Mostly Cloudy,200,2013-03-31 15:51:00
1:51 PM,48.0,21.0,34,29.83,10.0,South,18.4,-,N/A,,Mostly Cloudy,170,2013-03-31 17:51:00
2:51 PM,48.0,21.9,36,29.80,10.0,South,19.6,27.6,N/A,,Mostly Cloudy,180,2013-03-31 18:51:00
3:51 PM,46.9,24.1,41,29.79,10.0,SSW,21.9,28.8,N/A,,Overcast,210,2013-03-31 19:51:00
4:51 PM,45.0,26.1,48,29.78,10.0,South,10.4,-,N/A,,Overcast,190,2013-03-31 20:51:00
5:51 PM,42.1,30.9,65,29.79,9.0,SSW,19.6,27.6,N/A,,Overcast,200,2013-03-31 21:51:00
6:51 PM,42.1,30.0,62,29.76,10.0,South,9.2,-,0.00,,Overcast,190,2013-03-31 22:51:00
7:51 PM,39.0,30.0,70,29.73,10.0,Calm,Calm,-,N/A,,Overcast,0,2013-03-31 23:51:00
8:51 PM,37.0,28.9,73,29.71,10.0,Calm,Calm,-,N/A,,Mostly Cloudy,0,2013-04-01 00:51:00
9:51 PM,41.0,32.0,70,29.69,10.0,South,11.5,-,N/A,,Overcast,180,2013-04-01 01:51:00
9:59 PM,41.0,32.0,70,29.66,10.0,South,9.2,-,N/A,,Overcast,180,2013-04-01 01:59:00
10:51 PM,39.9,32.0,73,29.66,10.0,South,11.5,-,N/A,,Overcast,190,2013-04-01 02:51:00
10:58 PM,39.2,32.0,75,29.63,10.0,South,5.8,16.1,N/A,,Overcast,170,2013-04-01 02:58:00
11:05 PM,39.2,32.0,75,29.63,10.0,South,6.9,-,N/A,,Overcast,170,2013-04-01 03:05:00
11:51 PM,37.9,32.0,79,29.64,10.0,South,6.9,-,N/A,,Overcast,190,2013-04-01 03:51:00